Location: Emory University Observatory
(33.7903°N, 84.3267°W)
Time: 14:21:34
(UTC-05:00)

Envisat - Pass Details

Date: 07 October 2017
Orbit: 764 x 766 km, 98.2° (Epoch: 17 December)

Event Time Altitude Azimuth Distance (km) Brightness Sun altitude
Exits shadow 21:18:27 37° 13° (NNE) 1,179 3.9 -26.7°
Drops below altitude 10° 21:21:37 10° 356° (N) 2,308 5.6 -27.4°
Sets 21:23:57 0° 353° (N) 3,238 6.5 -27.9°
